sat.trackr.live / text

‹ back to catalog

STARLINK-34038

NORAD 63911 · 2025-095X

PAYLOAD ACTIVE UNKNOWN

§ Identity

Operator
Country
US
Launch date
2025-05-10
Launch site
AFETR
Launch vehicle
Mass (kg)
RCS (m²)

Purposes: comms

External: N2YO · Heavens-Above · Gunter

§ Orbital elements

Epoch: 2026-09-20T23:22:22.552896Z

Period
94.27 min
Inclination
42.9977°
Eccentricity
0.0000422
Mean motion
15.27591987 rev/d
Perigee alt
482.7 km
Apogee alt
483.3 km
Semi-major
6,861.2 km
B*
3.7162e-4
RAAN
153.3808°
Arg perigee
128.8581°
Mean anomaly
231.2308°
Rev number
7,764

§ Raw data

STARLINK-340381 63911U 25095X   26263.97387214  .00009982  00000+0  37162-3 0  99902 63911  42.9977 153.3808 0000422 128.8581 231.2308 15.27591987 77646

JSON: /api/v1/satellites/63911 · /tle

For live sub-satellite position, see the globe view (requires WebGL).

§ Visibility from observer

Set your observer location to see the next 7 days of passes ≥ 10°. The values pass through the URL so the page stays shareable.

No JS? Fill the form by hand. The geolocation button needs JavaScript.